Home   Weather   Clarksville   Past weeks

Flag for USA Past Weather in Clarksville, Tennessee, USA — Yesterday and Last 2 Weeks

Now
67 °F

Broken clouds.


Feels Like: 67 °F
Forecast: 58 / 70 °F
Wind: 7 mph from Southwest

Location: Outlaw Field

Current Time: Oct 1, 2016 at 12:22:14 PM

Latest Report: Oct 1, 2016 at 11:52 AM


Visibility: 10 mi

Pressure: 30.06 "Hg

Humidity: 76%

Dew Point: 59 °F

Location of ClarksvilleLocation

Past Weather in Clarksville — Graph

°F

Clarksville Temperature Yesterday

Maximum temperature yesterday: 68 °F (at 1:52 PM)
Minimum temperature yesterday: 52 °F (at 1:02 AM)
Average temperature yesterday: 60 °F

High & Low Weather Summary for the Past Weeks

 TemperatureHumidityPressure
High91 °F (Sep 25, 1:52 PM)100% (Sep 27, 8:52 AM)30.17 "Hg (Sep 27, 8:52 AM)
Low46 °F (Sep 27, 4:52 AM)28% (Sep 27, 1:52 PM)29.83 "Hg (Sep 28, 12:52 PM)
Average70 °F75%30.03 "Hg
* Reported Sep 16 11:52 AM — Oct 1 11:00 AM, Clarksville, Weather by CustomWeather, © 2016

Note: Actual official high and low records may vary slightly from our data, if they occured in-between our weather recording intervals... More about our weather records

Advertising

Clarksville Weather History for the Previous 24 Hours

Scroll right to see more
 ConditionsComfort  
Time TempWeatherWind HumidityBarometerVisibility
11:00 AM
Sat, Oct 1
64 °FMostly cloudy.9 mph81%30.08 "Hg10 mi
10:52 AM65 °FMore clouds than sun.7 mph81%30.07 "Hg10 mi
9:52 AM62 °FMostly cloudy.6 mph90%30.07 "Hg10 mi
8:52 AM61 °FLow clouds.7 mph93%30.06 "Hg7 mi
7:52 AM60 °FFog.6 mph93%30.05 "Hg4 mi
7:00 AM60 °FLow clouds.3 mph93%30.05 "Hg8 mi
5:52 AM60 °FOvercast.6 mph93%30.02 "Hg9 mi
4:52 AM60 °FMostly cloudy.5 mph93%30.01 "Hg8 mi
4:04 AM59 °FLight rain. Fog.5 mph93%30.02 "Hg4 mi
3:52 AM59 °FMostly cloudy.5 mph93%30.01 "Hg8 mi
2:52 AM59 °FOvercast.7 mph93%30.01 "Hg8 mi
1:52 AM59 °FOvercast.5 mph93%30.01 "Hg7 mi
12:52 AM59 °FLow clouds.3 mph93%30.02 "Hg8 mi
11:52 PM
Fri, Sep 30
58 °FPassing clouds.5 mph97%30.01 "Hg8 mi
10:52 PM59 °FPassing clouds.3 mph93%30.02 "Hg10 mi
9:52 PM60 °FMostly cloudy.5 mph90%30.02 "Hg10 mi
8:52 PM62 °FMostly cloudy.3 mph86%30.03 "Hg10 mi
7:52 PM62 °FLight rain. Mostly cloudy.No wind90%30.02 "Hg10 mi
6:52 PM63 °FMostly cloudy.3 mph87%30.00 "Hg10 mi
5:52 PM65 °FOvercast.5 mph81%30.01 "Hg10 mi
4:52 PM63 °FPartly sunny.3 mph84%30.01 "Hg10 mi
3:52 PM61 °FLight rain. Fog.3 mph90%30.01 "Hg6 mi
3:02 PM60 °FHeavy rain. Fog.9 mph90%30.02 "Hg2 mi
2:59 PM61 °FHeavy rain. Fog.10 mph87%30.02 "Hg2 mi
1:52 PM68 °FMostly cloudy.10 mph61%30.01 "Hg10 mi
12:52 PM66 °FBroken clouds.9 mph68%30.04 "Hg10 mi
Weather by CustomWeather, © 2016

See weather overviewHow to use our weather pages